"Pseudo-MPEC" for CE9NVU2

Created 2026 Mar 9 17:35:16 UT using Find_Orb

Click here for an explanation of pseudo-MPECs

 
 Astrometry: 
     CE9NVU2*1C2026 03 06.39348013 09 12.211+45 27 56.12   ~36A5 20.05GVNEOCPG96
     CE9NVU2 1C2026 03 06.39848413 09 12.132+45 28 26.76   ~36A5 20.76GVNEOCPG96
     CE9NVU2 1C2026 03 06.40408313 09 12.031+45 28 59.70   ~36A5 19.87GVNEOCPG96
     CE9NVU2 1C2026 03 06.40981513 09 11.970+45 29 34.26   ~36A5 19.88GVNEOCPG96
     CE9NVU2 1C2026 03 06.48760613 09 10.825+45 37 18.05   ~36CK 20.09GVNEOCPI52
     CE9NVU2 1C2026 03 06.48853713 09 10.879+45 37 23.48   ~36CK 19.83GVNEOCPI52
     CE9NVU2 1C2026 03 06.48947713 09 10.832+45 37 29.06   ~36CK 20.10GVNEOCPI52
     CE9NVU2 1C2026 03 06.49040813 09 10.847+45 37 34.72   ~36CK 20.05GVNEOCPI52

Station data:
(G96) Mt. Lemmon Survey  (N32.442729 W110.788720)  US/Arizona.  Observer E.
   J. Christensen. Measurers T. Beuden, V. F. Carvajal, D. Fay, J. B.
   Fazekas, D. C. Fuls, A. R. Gibbs, A. D. Grauer, H. Gröller, J. K. Hogan,
   R. A. Kowalski, S. M. Larson, G. J. Leonard, D. Rankin, R. L. Seaman, F.
   C. Shelly, K. W. Wierzchoś. 1.5-m reflector + 10K CCD.
(I52) Steward Observatory, Mt. Lemmon Station  (N32.442570 W110.788920)
   US/Arizona. Measurers T. Beuden, V. F. Carvajal, D. Fay, J. B. Fazekas, D.
   C. Fuls, A. R. Gibbs, A. D. Grauer, H. Gröller, J. K. Hogan, R. A.
   Kowalski, S. M. Larson, G. J. Leonard, D. Rankin, R. L. Seaman, F. C.
   Shelly, K. W. Wierzchoś. 1.0-m prime focus + CCD.

Orbital elements:  CE9NVU2
   Perihelion 2026 Jul 27.677297 +/- 68.7 TT = 16:15:18.5 (JD 2461249.177297)
Epoch 2026 Mar  6.0 TT = JDT 2461105.5   Earth MOID: 0.2453   Ve: 0.0404
M 224.626610359 +/- 70              (J2000 ecliptic)             AutoNEOCP
n   0.942204454 +/- 0.461           Peri.  172.307345 +/- 80
a   1.030479319 +/- 0.336           Node   149.666124 +/- 60
e   0.25853710 +/- 0.271            Incl.   34.953392 +/- 22
P   1.046/382.075d         H 20.75  G  0.15   U 12.2  SR
q 0.764062179 +/- 0.361    Q 1.296896460 +/- 5.63
From 8 observations 2026 Mar. 6 (2.3 hr); mean residual 0".20
Residuals in arcseconds: 
260306 G96  .09+  .20-    260306 G96  .06+  .00     260306 I52  .08-  .06-    
260306 G96  .02+  .41+    260306 I52  .41-  .04+    260306 I52  .21+  .08+    
260306 G96  .18-  .21-    260306 I52  .28+  .06-    

Ephemerides (geocentric):
Date (UTC) HH   RA             Dec           delta  r     elong  mag " sig PA
---- --------  ------------   ------------  ------ ------ -----  --- --------
2026 03 09 18  13 08 40.978   +50 51 34.16  .34702 1.2379 128.2 20.5 918'  51
2026 03 09 19  13 08 40.245   +50 55 25.65  .34714 1.2378 128.1 20.5 918'  50
2026 03 09 20  13 08 39.504   +50 59 16.88  .34726 1.2377 128.1 20.5 918'  50
2026 03 09 21  13 08 38.754   +51 03 07.86  .34738 1.2376 128.0 20.5 917'  50
2026 03 09 22  13 08 37.994   +51 06 58.58  .34750 1.2375 128.0 20.5 916'  52
2026 03 09 23  13 08 37.226   +51 10 49.05  .34763 1.2374 127.9 20.5 948'  59
2026 03 10 00  13 08 36.449   +51 14 39.26  .34775 1.2373 127.9 20.5 991'  65
2026 03 10 01  13 08 35.663   +51 18 29.22  .34787 1.2373 127.8 20.5  17d  66
2026 03 10 02  13 08 34.867   +51 22 18.92  .34799 1.2372 127.8 20.5  17d  66
2026 03 10 03  13 08 34.063   +51 26 08.36  .34812 1.2371 127.7 20.5  17d  66
2026 03 10 04  13 08 33.250   +51 29 57.54  .34824 1.2370 127.7 20.5  18d  65
2026 03 10 05  13 08 32.428   +51 33 46.46  .34836 1.2369 127.6 20.5  18d  65
2026 03 10 06  13 08 31.596   +51 37 35.13  .34849 1.2368 127.6 20.5  18d  64
2026 03 10 07  13 08 30.756   +51 41 23.53  .34861 1.2367 127.5 20.5  18d  63
2026 03 10 08  13 08 29.906   +51 45 11.68  .34874 1.2366 127.5 20.5  18d  62
2026 03 10 09  13 08 29.048   +51 48 59.56  .34886 1.2365 127.4 20.5  18d  61
2026 03 10 10  13 08 28.180   +51 52 47.18  .34899 1.2364 127.4 20.5  18d  60
2026 03 10 11  13 08 27.303   +51 56 34.54  .34912 1.2363 127.3 20.5  19d  60
2026 03 10 12  13 08 26.417   +52 00 21.64  .34925 1.2362 127.2 20.5  19d  59
2026 03 10 13  13 08 25.522   +52 04 08.47  .34937 1.2361 127.2 20.5  19d  58
2026 03 10 14  13 08 24.618   +52 07 55.05  .34950 1.2360 127.1 20.5  19d  58
2026 03 10 15  13 08 23.704   +52 11 41.35  .34963 1.2359 127.1 20.5  19d  57
2026 03 10 16  13 08 22.781   +52 15 27.40  .34976 1.2358 127.0 20.5  19d  56
2026 03 10 17  13 08 21.849   +52 19 13.18  .34989 1.2357 127.0 20.5  19d  56
2026 03 10 18  13 08 20.908   +52 22 58.69  .35002 1.2356 126.9 20.5  20d  56
2026 03 10 19  13 08 19.958   +52 26 43.94  .35015 1.2355 126.9 20.5  20d  57
2026 03 10 20  13 08 18.998   +52 30 28.92  .35028 1.2354 126.8 20.5  20d  58
2026 03 10 21  13 08 18.029   +52 34 13.64  .35041 1.2353 126.8 20.5  20d  59
2026 03 10 22  13 08 17.051   +52 37 58.08  .35055 1.2352 126.7 20.5  20d  60
2026 03 10 23  13 08 16.063   +52 41 42.27  .35068 1.2351 126.7 20.5  21d  60
2026 03 11 00  13 08 15.066   +52 45 26.18  .35081 1.2350 126.6 20.5  21d  61
2026 03 11 01  13 08 14.060   +52 49 09.82  .35095 1.2349 126.6 20.5  21d  61
2026 03 11 02  13 08 13.044   +52 52 53.20  .35108 1.2348 126.5 20.5  22d  64
2026 03 11 03  13 08 12.019   +52 56 36.31  .35122 1.2347 126.5 20.5  22d  67
2026 03 11 04  13 08 10.984   +53 00 19.14  .35135 1.2346 126.4 20.5  23d  67
2026 03 11 05  13 08 09.940   +53 04 01.71  .35149 1.2345 126.3 20.5  23d  67
2026 03 11 06  13 08 08.887   +53 07 44.01  .35162 1.2344 126.3 20.5  23d  67
2026 03 11 07  13 08 07.824   +53 11 26.03  .35176 1.2343 126.2 20.5  23d  67
2026 03 11 08  13 08 06.752   +53 15 07.79  .35190 1.2342 126.2 20.5  23d  66
2026 03 11 09  13 08 05.670   +53 18 49.27  .35203 1.2341 126.1 20.5  24d  66
2026 03 11 10  13 08 04.579   +53 22 30.48  .35217 1.2340 126.1 20.5  24d  65
2026 03 11 11  13 08 03.478   +53 26 11.42  .35231 1.2339 126.0 20.5  24d  64
2026 03 11 12  13 08 02.368   +53 29 52.09  .35245 1.2339 126.0 20.5  24d  64
2026 03 11 13  13 08 01.248   +53 33 32.48  .35259 1.2338 125.9 20.5  24d  63
2026 03 11 14  13 08 00.119   +53 37 12.60  .35273 1.2337 125.9 20.5  24d  63
2026 03 11 15  13 07 58.980   +53 40 52.44  .35287 1.2336 125.8 20.6  24d  62
2026 03 11 16  13 07 57.831   +53 44 32.01  .35301 1.2335 125.8 20.6  24d  61
2026 03 11 17  13 07 56.673   +53 48 11.31  .35315 1.2334 125.7 20.6  25d  61